Starlink 31863

operational
NORAD ID: 59789 Int'l Des: 2024-093 Owner: SPXS Country: US Constellation: starlink
LEOCIRCULAR

About Starlink 31863

Description loading...

Live Position

Loading 3D Globe...

Upcoming Passes

Altitude History

Altitude vs Time

uPlot chart will show altitude changes over time

Two-Line Element Set

1 59789U 24093H 25306.41457194 .00005657 00000-0 21508-3 0 9999
2 59789 43.0006 207.3956 0000962 308.2534 51.8231 15.27558630 83235
Epoch: Nov 2, 2025 • Age: 24 hours

Current Status

Altitude 483.0 km
Velocity 7.63 km/s
Sub-Earth Point 26.14°N, 45.52°E
Launch Date May 18, 2024
Age 1.4 years
Type internet

Technical Details

Classification Payload
Mass 730.00 kg
Dry Mass 700.00 kg
Total Mass 730.00 kg
Length 0.30 m
Diameter 4.10 m
Span 29.00 m
Shape Box + pan
Manufacturer SPXS
Bus Type Starlink V2M
Phase Status In Orbit
Owner/State SPXS/US

Large Constellations

Loading constellations...